Home > Time Zones > World Clock > Weather > Japan > Kyoto > Past weeks

Flag for Japan Weather past 2 weeks in Kyoto, Japan

Now
70 °F

Mild.


Feels Like: 72 °F
Forecast: 53 / 83 °F
Wind: 2 mph from Northwest

Location: Osaka

Current Time: May 26, 2015 at 1:31:28 AM

Latest Report: May 26, 2015 at 12:00 AM


Visibility: N/A

Pressure: 29.81 "Hg

Humidity: 76%

Dew point: 62 °F

Location of KyotoLocation

Historic Weather in Kyoto — Graph

°F

Kyoto temperature yesterday

Maximum temperature yesterday: 81 °F (at 1:00 PM)
Minimum temperature yesterday: 66 °F (at 5:00 AM)
Average temperature yesterday: 74 °F

Past Weeks' High & Low Weather Summary

 TemperatureHumidityPressure
High82 °F (May 20, 1:00 PM)97% (May 16, 3:00 AM)30.20 "Hg (May 16, 3:00 AM)
Low54 °F (May 11, 5:00 AM)22% (May 11, 1:00 PM)29.54 "Hg (May 12, 7:00 PM)
Average70 °F61%29.84 "Hg
* Reported Midnight between May 10 and May 11 — Midnight between May 25 and May 26, Kyoto, Weather by CustomWeather, © 2015

Note: Actual official high and low records may vary slightly from our data, if they occured in-between our weather recording intervals... More about our weather records

Advertising

Kyoto weather history for previous 24 hours

 ConditionsComfort  
Time TempWeatherWind HumidityBarometerVisibility
12:00 AM
Tue, May 26
70 °FMild.2 mph76%29.81 "HgN/A
11:00 PM
Mon, May 25
71 °FMild.3 mph74%29.81 "HgN/A
10:00 PM72 °FMild.2 mph69%29.81 "HgN/A
9:00 PM72 °FOvercast.3 mph65%29.80 "Hg12 mi
8:00 PM73 °FMild.5 mph60%29.78 "HgN/A
7:00 PM75 °FMild.6 mph51%29.77 "HgN/A
6:00 PM78 °FOvercast.5 mph48%29.74 "Hg16 mi
5:00 PM80 °FWarm.6 mph44%29.73 "HgN/A
4:00 PM80 °FWarm.7 mph42%29.73 "HgN/A
3:00 PM80 °FPartly sunny.3 mph41%29.73 "Hg12 mi
2:00 PM81 °FWarm.5 mph43%29.74 "HgN/A
1:00 PM81 °FWarm.3 mph42%29.75 "HgN/A
11:00 AM79 °FWarm.2 mph41%29.78 "HgN/A
10:00 AM77 °FWarm.3 mph47%29.78 "HgN/A
9:00 AM74 °FPartly sunny.2 mph51%29.79 "Hg16 mi
8:00 AM71 °FMild.3 mph56%29.80 "HgN/A
7:00 AM68 °FMild.3 mph62%29.80 "HgN/A
5:00 AM66 °FMild.3 mph62%29.80 "HgN/A
4:00 AM66 °FMild.3 mph61%29.79 "HgN/A
3:00 AM67 °FPassing clouds.3 mph75%29.77 "Hg16 mi
2:00 AM68 °FMild.5 mph72%29.77 "HgN/A
1:00 AM70 °FMild.2 mph67%29.78 "HgN/A
Weather by CustomWeather, © 2015

See weather overviewHow to use our weather pages